Tracking 18843 objects as of 21-November-2017
HD Live streaming from Space Station
objects crossing your sky now

COSMOS 1640

Track COSMOS 1640 now!
10-day predictions
COSMOS 1640 is classified as:


NORAD ID: 15622
Int'l Code: 1985-023F
Perigee: 1,433.8 km
Apogee: 1,486.2 km
Inclination: 74.1 °
Period: 114.9 minutes
Semi major axis: 7830 km
RCS: 0.7149 m2 (medium)
Launch date: March 21, 1985
Source: Commonwealth of Independent States (former USSR) (CIS)
Launch site: PLESETSK MISSILE AND SPACE COMPLEX (PKMTR)
aabbcc
Your satellite tracking list
Your tracking list is empty




NASA's NSSDC Master Catalog

Two Line Element Set (TLE):
1 15622U 85023F   17324.63300145 -.00000035 +00000-0 -12143-3 0  9997
2 15622 074.0535 116.4700 0033463 050.7818 032.7571 12.52791909494253
Source of the keplerian elements: AFSPC